User: anonymous   Login
Location: Bagnara
(41.0500°N, 14.7833°E)
Time: 21:21:41
(UTC+00:00)
Language:

DMSP 5D-3 F17 DEB - Orbit

View from above orbital plane
View from above orbital plane
View from above satellite
View from above satellite

Ground track
Ground track

The orbit data is extracted from the following two-line orbital elements,

1 29525U 06050D   22021.56242038  .00000712  00000-0  34206-3 0  9999
2 29525  98.6536  50.8907 0005647 158.1196 329.1207 14.21959476787301
Epoch (UTC): 21 January 2022 13:29:53
Eccentricity: 0.0005647
inclination: 98.6536°
perigee height: 814 km
apogee height: 823 km
right ascension of ascending node: 50.8907°
argument of perigee: 158.1196°
revolutions per day: 14.21959476
mean anomaly at epoch: 329.1207°
orbit number at epoch: 78730

The dashed part of the orbit path shows where the satellite is in the earth's shadow,  

DLR